Location: Newark
(47.1042°N, 8.6744°E)
Time: 00:37:00
(UTC+00:00)

Envisat - Visible Passes

Search period start: 14 October 2019 00:00
Search period end: 24 October 2019 00:00
Orbit: 764 x 766 km, 98.1° (Epoch: 13 October)

Date Brightness Start Highest point End Pass type
(mag) Time Alt. Az. Time Alt. Az. Time Alt. Az.
14 Oct 6.4 04:59:36 10° ENE 05:01:59 13° E 05:04:21 10° ESE visible
14 Oct 4.0 17:54:21 10° S 17:59:15 49° W 18:04:13 10° NNW visible
15 Oct 3.0 17:17:21 10° SSE 17:22:26 80° ENE 17:27:33 10° NNW visible
15 Oct 6.0 18:59:22 10° WSW 19:02:05 14° W 19:04:49 10° NW visible
16 Oct 5.0 18:20:30 10° SSW 18:24:55 30° W 18:29:22 10° NNW visible
17 Oct 6.7 04:49:55 10° ENE 04:50:34 10° E 04:51:11 10° E visible
17 Oct 3.6 17:42:56 10° S 17:47:57 62° W 17:53:01 10° NNW visible
18 Oct 3.0 17:06:11 10° SSE 17:11:11 65° ENE 17:16:14 10° N visible
18 Oct 5.8 18:47:16 10° SW 18:50:41 18° W 18:54:07 10° NW visible
19 Oct 6.1 05:12:59 10° NE 05:16:25 18° E 05:19:51 10° SE visible
19 Oct 4.6 18:08:54 10° SSW 18:13:34 37° W 18:18:16 10° NNW visible
20 Oct 3.2 17:31:35 10° S 17:36:40 77° WSW 17:41:47 10° NNW visible
20 Oct 6.3 19:15:56 10° W 19:16:33 10° W 19:17:10 10° WNW visible
21 Oct 3.2 16:55:03 10° SE 16:59:58 53° ENE 17:04:54 10° N visible
21 Oct 5.5 18:35:22 10° SW 18:39:18 22° W 18:43:14 10° NW visible
22 Oct 6.3 05:02:16 10° NE 05:05:01 14° E 05:07:44 10° ESE visible
22 Oct 4.2 17:57:23 10° S 18:02:15 45° W 18:07:08 10° NNW visible
23 Oct 3.0 17:20:19 10° SSE 17:25:24 87° ENE 17:30:31 10° NNW visible
23 Oct 6.1 19:02:46 10° WSW 19:05:07 13° W 19:07:29 10° WNW visible
